Terminal Aerodrome Forecast
Issued by NWS

Home | Current Version | Previous Version | Text Only | Print | Product List | Glossary On
Versions: 1 2 3 4 5 6 7 8 9 10 11 12 13 14 15 16
000
FTUS41 KPBZ 101744
TAFZZV
TAF
KZZV 101744Z 1018/1118 26007KT P6SM BKN035
     FM110400 18003KT P6SM VCSH OVC025
     FM110600 17003KT 2SM -SN OVC020
     FM111300 13005KT P6SM VCSH OVC050=

USA.gov is the U.S. government's official web portal to all federal, state and local government web resources and services.